Regional Weather Roundup
Issued by NWS

Home | Current Version | Previous Version | Graphics & Text | Print | Product List | Glossary On
Versions: 1 2 3 4 5 6 7 8 9 10 11 12 13 14 15 16 17 18 19 20 21 22 23 24 25 26 27 28 29 30 31 32 33 34 35 36 37 38 39 40 41 42 43 44 45 46 47 48 49 50
000
ASUS43 KMKX 021521
RWRWI

WISCONSIN REGIONAL WEATHER ROUNDUP
NATIONAL WEATHER SERVICE MILWAUKEE/SULLIVAN WI
1000 AM CDT THU JUL 02 2015

NOTE: "FAIR" INDICATES FEW OR NO CLOUDS BELOW 12,000 FEET WITH NO
SIGNIFICANT WEATHER AND/OR OBSTRUCTIONS TO VISIBILITY.

WIZ001-002-006>008-014>016-023>028-021600-
NORTHWEST WISCONSIN

CITY           SKY/WX    TMP DP  RH WIND       PRES   REMARKS
SUPERIOR ARPT  SUNNY     67  59  75 SW6       30.02
ASHLAND        SUNNY     68  56  65 SW6       30.03F
HAYWARD        SUNNY     66  51  58 SW5       30.05S
SIREN          NOT AVBL
CUMBERLAND     NOT AVBL
RICE LAKE      SUNNY     63  53  69 CALM      30.07
CHETEK         NOT AVBL
LADYSMITH      NOT AVBL
EAU CLAIRE     SUNNY     64  53  67 E5        30.05R
MENOMONIE      NOT AVBL
NEW RICHMOND   SUNNY     64  55  70 CALM      30.05
OSCEOLA        NOT AVBL
$$

WIZ003>005-009-010-017-018-021600-
NORTH CENTRAL WISCONSIN

CITY           SKY/WX    TMP DP  RH WIND       PRES   REMARKS
MANITOWISH WTR NOT AVBL
ARBOR VITAE    SUNNY     64  53  66 CALM      30.06F
WOODRUFF       SUNNY     64  53  66 CALM      30.06F
RHINELANDER    SUNNY     64  49  57 VRB3      30.08F
EAGLE RIVER    NOT AVBL
LAND O LAKES   PTSUNNY   61  51  67 CALM      30.08
PHILLIPS       NOT AVBL
TOMAHAWK       NOT AVBL
MEDFORD        SUNNY     61  54  76 E5        30.07
MERRILL        NOT AVBL
$$

WIZ029-030-035-036-043>047-021600-
CENTRAL WISCONSIN

CITY           SKY/WX    TMP DP  RH WIND       PRES   REMARKS
WAUSAU         SUNNY     65  45  48 SE5       30.06S
MOSINEE        SUNNY     63  48  59 CALM      30.08F
MARSHFIELD     SUNNY     64  52  64 SE5       30.07R
STEVENS POINT  SUNNY     60  45  57 E6        30.07
WAUPACA        NOT AVBL
WAUTOMA        SUNNY     64  44  48 E12       30.07F
WISC RAPIDS    SUNNY     64  45  49 SE7       30.08S
CAMP DOUGLAS   SUNNY     64  57  77 E6        30.07R
$$

WIZ011>013-019>022-031-037>040-048>050-021600-
NORTHEAST WISCONSIN

CITY           SKY/WX    TMP DP  RH WIND       PRES   REMARKS
ANTIGO         SUNNY     62  47  57 CALM      30.08S
SHAWANO        NOT AVBL
OCONTO         NOT AVBL
STURGEON BAY   SUNNY     63  46  55 NE6       30.10F
GREEN BAY      SUNNY     65  48  54 NE12      30.07F
MANITOWOC      SUNNY     62  48  60 MISG      30.06F
APPLETON       SUNNY     61  45  55 NE7       30.06F
CLINTONVILLE   NOT AVBL
OSHKOSH        SUNNY     62  47  57 E13       30.06S
$$

WIZ032>034-041-042-053>061-021600-
SOUTHWEST WISCONSIN

CITY           SKY/WX    TMP DP  RH WIND       PRES   REMARKS
LA CROSSE      SUNNY     63  56  78 S5        30.06R
SPARTA         NOT AVBL
VIROQUA        NOT AVBL
BOSCOBEL       SUNNY     64  51  62 VRB3      30.07R
PRAIRIE DU CHI NOT AVBL
PLATTEVILLE    NOT AVBL
$$

WIZ056-057-062-063-064-067-068-021600-
SOUTH CENTRAL WISCONSIN

CITY           SKY/WX    TMP DP  RH WIND       PRES   REMARKS
REEDSBURG      NOT AVBL
BARABOO/DELLS  NOT AVBL
LONE ROCK      SUNNY     63  47  55 E7        30.07R
MINERAL POINT  NOT AVBL
MADISON        SUNNY     62  46  55 E9        30.05S
MIDDLETON      NOT AVBL
WATERTOWN      NOT AVBL
MONROE         NOT AVBL
JANESVILLE     MOSUNNY   63  52  67 NE9       30.04R
$$

WIZ051-052-058>065-066-070>072-021600-
SOUTHEAST WISCONSIN

CITY           SKY/WX    TMP DP  RH WIND       PRES   REMARKS
MILWAUKEE      MOSUNNY   60  51  72 NE9       30.06S
WAUKESHA       SUNNY     59  48  67 NE6       30.06S
MILWAUKEE/TIMM SUNNY     61  46  59 NE8       30.06S
RACINE         SUNNY     61  51  70 NE10      30.06S
BURLINGTON     NOT AVBL
KENOSHA        MOSUNNY   63  52  67 NE12      30.04S
FOND DU LAC    SUNNY     63  48  58 NE13      30.06F
SHEBOYGAN      SUNNY     61  48  62 NE8       30.06F
WEST BEND      NOT AVBL
JUNEAU         NOT AVBL
$$

LSZ147-162-021600-
LAKE SUPERIOR

STATION/POSITION TIME  TEMP    WIND        PRES    WAVE
                       AIR SEA DIR/SP/G            HT/PER
                 (UTC) (F)     (DEG/KT/KT) (MB)    (FT/S)
W MID LAKE BUOY  1450   45 39  180/ 10/ 10 1016.7F
DEVILS ISLAND    1500   61     240/  4/  5 1016.5F
SAXON HARBOR     1440   68     190/  5/  8 1016.6F
$$

LMZ867-665-643>646-021600-
LAKE MICHIGAN

STATION/POSITION TIME  TEMP    WIND        PRES    WAVE
                       AIR SEA DIR/SP/G            HT/PER
                 (UTC) (F)     (DEG/KT/KT) (MB)    (FT/S)
CHAMBERS ISLAND  1400   63     310/  4/  6 1019.0R
N MID LAKE BUOY  1450   50 43  290/  4/  4 1018.9S   0
NORTHPORT PIER   1400   59     330/  5/  7 1018.6S
SISTER BAY       1444   64     350/  5/  6   N/A
ALGOMA LAKESHORE 1410             CALM       N/A
KEWAUNEE LAKESHO 1400   60      50/  1/  3 1018.1R
SHEBOYGAN LAKESH 1500   56      20/  9/ 10 1018.4F
PORT WASHINGTON  1440   59      40/ 10/ 13 1018.6F
ATWATER BUOY     1500   56      20/ 12/ 14 1019.0R
MILWAUKEE LAKESH 1500   56      30/ 11/ 12   N/A
KENOSHA   LAKESH 1500   56      30/ 12/ 14 1017.3R
$$

TC  - TEMPERATURE IN CELSIUS
VSB - VISIBILITY IN STATUTE MILES
WCI - WIND CHILL INDEX
HX  - HEAT INDEX



USA.gov is the U.S. government's official web portal to all federal, state and local government web resources and services.